Regional Weather Roundup
Issued by NWS

Home | Current Version | Previous Version | Text Only | Print | Product List | Glossary On
Versions: 1 2 3 4 5 6 7 8 9 10 11 12 13 14 15 16 17 18 19 20 21 22 23 24 25
000
ASCA42 TJSJ 180310
RWRPR
PUERTO RICO/U.S. VIRGIN ISLANDS HOURLY WEATHER ROUNDUP
NATIONAL WEATHER SERVICE SAN JUAN PR
1100 PM AST SAT FEB 17 2018

PRZ001>002-007>008-010-180400-
PUERTO RICO

CITY           SKY/WX    TMP DP  RH WIND       PRES   REMARKS
SAN JUAN LMM   PTCLDY    75  68  78 E10       30.15S
$$

VIZ001>002-180400-
U.S. VIRGIN ISLANDS

CITY           SKY/WX    TMP DP  RH WIND       PRES   REMARKS
CHARLOTTE AMA  PTCLDY    75  70  83 E13       30.13F
CHRISTIANSTED  PTCLDY    73  70  88 NE8       30.13F
$$

HOURLY WEATHER ROUNDUP FOR THE NEWS MEDIA

CITY           SKY/WX    TMP DP  RH WIND       PRES   REMARKS
ORLANDO        FAIR      71  58  63 W8        30.22R
NEW YORK       LGT SNOW  32  32 100 E9        30.07  FOG     WCI  24
NEWARK         LGT SNOW  33  32  96 NE3       30.07F VSB 3/4
CHICAGO        CLOUDY    30  25  81 NW15      30.08R WCI  19
HARTFORD       LGT SNOW  33  33 100 SE7       30.15F FOG     WCI  27
BOSTON         LGT SNOW  32  30  92 SE10      30.16F FOG     WCI  24
DALLAS         CLOUDY    55  46  71 E6        30.18S
PHILADELPHIA   LGT SNOW  32  32 100 N5        30.08S FOG     WCI  27
LOS ANGELES    PTCLDY    60  55  83 W10       30.05S
WASHINGTON DC  FOG       33  33 100 CALM      30.08F VSB 1



USA.gov is the U.S. government's official web portal to all federal, state and local government web resources and services.